Change the Weather History Date:

Wednesday, January 7, 2015

  Actual Average Record
Temperature  
Mean Temperature 69 °F 66 °F  
Max Temperature 78 °F 74 °F 86 °F (1960)
Min Temperature 60 °F 57 °F 37 °F (2010)
Degree Days  
Heating Degree Days 0 3  
Month to date heating degree days 0 21  
Since 1 July heating degree days 42 92  
Cooling Degree Days 4 4  
Month to date cooling degree days 77 28  
Year to date cooling degree days 77 28  
Growing Degree Days 20 (Base 50)    
Moisture  
Dew Point 57 °F    
Average Humidity 63    
Maximum Humidity 93    
Minimum Humidity 33    
Precipitation  
Precipitation 0.00 in 0.11 in 0.84 in (1958)
Month to date precipitation 0.23 0.77  
Year to date precipitation 0.23 0.77  
Snow  
Snow 0.00 in - - ()
Month to date snowfall 0.0  
Since 1 July snowfall 0.0  
Snow Depth 0.00 in    
Sea Level Pressure  
Sea Level Pressure 30.14 in    
Wind  
Wind Speed 8 mph (NW)    
Max Wind Speed 15 mph    
Max Gust Speed 19 mph    
Visibility 10 miles    
Events      
T = Trace of Precipitation, MM = Missing Value Source: NWS Daily Summary

Daily Weather History Graph

Daily Weather History Graph

Search for Another Location

Airport or City:

Trip Planner

Search our weather history database for the weather conditions in past years. The results will help you decide how hot, cold, wet, or windy it might be!

Date:

Astronomy

Jan. 07, 2015 Rise Set
Actual Time 7:10 AM EST 5:43 PM EST
Civil Twilight 6:44 AM EST 6:08 PM EST
Nautical Twilight 6:16 AM EST 6:37 PM EST
Astronomical Twilight 5:48 AM EST 7:05 PM EST
Moon 8:09 PM EST (1/7) 8:36 AM EST (1/7)
Length of Visible Light 11h 23m
Length of Day
10h 33m
Waning Gibbous, 94% of the Moon is Illuminated
Jan 7
Waning Gibbous
Jan 13
Last Quarter
Jan 20
New
Jan 26
First Quarter
Feb 3
Full

Hourly Weather History & Observations

Time (EST) Temp. Dew Point Humidity Pressure Visibility Wind Dir Wind Speed Gust Speed Precip Events Conditions
12:53 AM 73.0 °F 69.1 °F 87% 30.16 in 10.0 mi Calm Calm - N/A   Mostly Cloudy
1:53 AM 73.0 °F 69.1 °F 87% 30.15 in 10.0 mi WNW 5.8 mph - N/A   Mostly Cloudy
2:53 AM 72.0 °F 69.1 °F 91% 30.14 in 10.0 mi WNW 5.8 mph - N/A   Mostly Cloudy
3:53 AM 71.1 °F 68.0 °F 90% 30.14 in 10.0 mi NW 8.1 mph - N/A   Mostly Cloudy
4:53 AM 70.0 °F 66.9 °F 90% 30.14 in 10.0 mi NW 6.9 mph - N/A   Mostly Cloudy
5:53 AM 68.0 °F 66.0 °F 93% 30.15 in 10.0 mi NW 9.2 mph - N/A   Mostly Cloudy
6:53 AM 66.0 °F 63.0 °F 90% 30.17 in 10.0 mi NW 6.9 mph - N/A   Mostly Cloudy
7:53 AM 66.9 °F 64.0 °F 90% 30.17 in 10.0 mi NNW 6.9 mph - N/A   Mostly Cloudy
8:53 AM 66.9 °F 62.1 °F 84% 30.19 in 10.0 mi NW 10.4 mph - N/A   Mostly Cloudy
9:53 AM 70.0 °F 61.0 °F 73% 30.19 in 10.0 mi NNW 6.9 mph - N/A   Scattered Clouds
10:53 AM 73.0 °F 62.1 °F 68% 30.17 in 10.0 mi North 9.2 mph - N/A   Mostly Cloudy
11:53 AM 75.9 °F 61.0 °F 60% 30.14 in 10.0 mi NNW 6.9 mph - N/A   Mostly Cloudy
12:53 PM 75.0 °F 60.1 °F 60% 30.11 in 10.0 mi WNW 6.9 mph - N/A   Mostly Cloudy
1:53 PM 75.9 °F 59.0 °F 56% 30.09 in 10.0 mi Calm Calm - N/A   Mostly Cloudy
2:53 PM 77.0 °F 59.0 °F 54% 30.08 in 10.0 mi West 8.1 mph - N/A   Mostly Cloudy
3:53 PM 78.1 °F 55.9 °F 46% 30.08 in 10.0 mi NW 10.4 mph - N/A   Mostly Cloudy
4:53 PM 75.0 °F 44.1 °F 33% 30.10 in 10.0 mi West 12.7 mph - N/A   Mostly Cloudy
5:53 PM 69.1 °F 45.0 °F 42% 30.12 in 10.0 mi NW 8.1 mph - N/A   Mostly Cloudy
6:53 PM 66.9 °F 46.9 °F 49% 30.13 in 10.0 mi NW 8.1 mph - N/A   Scattered Clouds
7:53 PM 63.0 °F 46.9 °F 56% 30.14 in 10.0 mi NW 8.1 mph - N/A   Partly Cloudy
8:53 PM 64.0 °F 44.1 °F 48% 30.15 in 10.0 mi NW 10.4 mph - N/A   Partly Cloudy
9:53 PM 61.0 °F 43.0 °F 52% 30.16 in 10.0 mi NW 8.1 mph - N/A   Partly Cloudy
10:53 PM 62.1 °F 43.0 °F 50% 30.17 in 10.0 mi NNW 10.4 mph - N/A   Partly Cloudy
11:53 PM 62.1 °F 42.1 °F 48% 30.17 in 10.0 mi NNW 13.8 mph - N/A   Clear